Change the Weather History Date:

Sunday, November 24, 2013

  Actual Average (YMML) Record (YMML)
Temperature  
Mean Temperature 58 °F -  
Max Temperature 64 °F 72 °F 92 °F (2012)
Min Temperature 52 °F 50 °F 44 °F (1996)
Degree Days  
Heating Degree Days 7    
Growing Degree Days 8 (Base 50)    
Moisture  
Dew Point 52 °F    
Average Humidity 84    
Maximum Humidity 100    
Minimum Humidity 62    
Precipitation  
Precipitation 0.00 in - - ()
Sea Level Pressure  
Sea Level Pressure 29.86 in    
Wind  
Wind Speed 13 mph ()    
Max Wind Speed 22 mph    
Max Gust Speed -    
Visibility 5.8 miles    
Events Rain    
Averages and records for this station are not official NWS values.
T = Trace of Precipitation, MM = Missing Value Source: Averaged Metar Reports

Daily Weather History Graph

Daily Weather History Graph

Search for Another Location

Airport or City:

Trip Planner

Search our weather history database for the weather conditions in past years. The results will help you decide how hot, cold, wet, or windy it might be!

Date:

Astronomy

Nov. 24, 2013 Rise Set
Actual Time 5:55 AM AEDT 8:21 PM AEDT
Civil Twilight 5:25 AM AEDT 8:52 PM AEDT
Nautical Twilight 4:48 AM AEDT 9:29 PM AEDT
Astronomical Twilight 4:07 AM AEDT 10:10 PM AEDT
Moon 12:26 AM AEDT (11/24) 11:22 AM AEDT (11/24)
Length of Visible Light 15h 26m
Length of Day
14h 26m
Waning Gibbous, 67% of the Moon is Illuminated
Nov 24
Waning Gibbous
Nov 26
Last Quarter
Dec 3
New
Dec 10
First Quarter
Dec 17
Full

Hourly Weather History & Observations

Time (AEDT) Temp. Dew Point Humidity Pressure Visibility Wind Dir Wind Speed Gust Speed Precip Events Conditions
12:00 AM 55 °F 54 °F 94% 29.83 in 4 mi WSW 10.4 mph - -   Overcast
12:00 AM 55.4 °F 53.6 °F 94% 29.80 in 3.7 mi WSW 10.4 mph - N/A Rain Light Rain Showers
12:30 AM 55.4 °F 53.6 °F 94% 29.83 in 3.7 mi SW 16.1 mph - N/A Rain Light Rain Showers
1:00 AM 55.4 °F 53.6 °F 94% 29.80 in 6.2 mi WSW 13.8 mph - N/A   Overcast
1:04 AM 55.4 °F 53.6 °F 94% 29.80 in 3.7 mi WSW 13.8 mph - N/A Rain Light Rain Showers
1:24 AM 53.6 °F 53.6 °F 100% 29.80 in 6.2 mi WSW 15.0 mph - N/A   Overcast
1:30 AM 53.6 °F 53.6 °F 100% 29.80 in 6.2 mi WSW 13.8 mph - N/A   Overcast
1:50 AM 53.6 °F 53.6 °F 100% 29.80 in 6.2 mi West 10.4 mph - N/A   Overcast
2:00 AM 53.6 °F 53.6 °F 100% 29.80 in 6.2 mi West 10.4 mph - N/A   Overcast
2:30 AM 53.6 °F 51.8 °F 94% 29.80 in 6.2 mi SW 15.0 mph - N/A   Overcast
3:00 AM 54 °F 51 °F 85% 29.82 in - WSW 10.4 mph - -   Overcast
3:00 AM 55.4 °F 50.0 °F 82% 29.80 in 6.2 mi WSW 10.4 mph - N/A   Overcast
3:30 AM 53.6 °F 50.0 °F 88% 29.80 in 6.2 mi SW 17.3 mph - N/A   Overcast
4:00 AM 53.6 °F 50.0 °F 88% 29.80 in 6.2 mi WSW 12.7 mph - N/A   Overcast
4:30 AM 53.6 °F 51.8 °F 94% 29.80 in 6.2 mi West 12.7 mph - N/A   Overcast
4:59 AM 53.6 °F 51.8 °F 94% 29.80 in 5.0 mi West 12.7 mph - N/A Rain Light Rain Showers
5:00 AM 53.6 °F 51.8 °F 94% 29.80 in 5.0 mi West 12.7 mph - N/A Rain Light Rain Showers
5:30 AM 53.6 °F 50.0 °F 88% 29.80 in 6.2 mi WSW 15.0 mph - N/A   Overcast
6:00 AM 53 °F 51 °F 89% 29.82 in - West 11.5 mph - -  
6:00 AM 53.6 °F 50.0 °F 88% 29.80 in 6.2 mi West 11.5 mph - N/A   Overcast
6:19 AM 53.6 °F 50.0 °F 88% 29.80 in 3.7 mi West 11.5 mph - N/A Rain Light Rain Showers
6:30 AM 53.6 °F 51.8 °F 94% 29.80 in - West 10.4 mph - N/A Rain Light Rain Showers
7:00 AM 53.6 °F 51.8 °F 94% 29.83 in 2.5 mi West 15.0 mph - N/A Rain Light Rain Showers
7:30 AM 53.6 °F 51.8 °F 94% 29.83 in - West 13.8 mph - N/A Rain Light Rain Showers
8:00 AM 53.6 °F 53.6 °F 100% 29.83 in 3.1 mi West 12.7 mph - N/A   Drizzle
8:30 AM 53.6 °F 53.6 °F 100% 29.83 in 6.2 mi West 15.0 mph - N/A Rain Light Rain
8:34 AM 53.6 °F 53.6 °F 100% 29.83 in 5.6 mi West 13.8 mph - N/A Rain Light Rain
9:00 AM 55 °F 55 °F 99% 29.84 in - West 15.0 mph - -   Overcast
9:00 AM 55.4 °F 55.4 °F 100% 29.83 in 6.2 mi West 15.0 mph - N/A   Light Drizzle
9:30 AM 59.0 °F 57.2 °F 94% 29.83 in 6.2 mi South 16.1 mph - N/A   Overcast
9:32 AM 59.0 °F 57.2 °F 94% 29.86 in 6.2 mi South 16.1 mph - N/A   Overcast
10:00 AM 60.8 °F 57.2 °F 88% 29.86 in 6.2 mi SSW 19.6 mph - N/A   Overcast
10:30 AM 59.0 °F 55.4 °F 88% 29.86 in 6.2 mi SSW 20.7 mph - N/A   Overcast
11:00 AM 60.8 °F 55.4 °F 82% 29.86 in 6.2 mi SSW 19.6 mph - N/A   Overcast
11:30 AM 60.8 °F 55.4 °F 82% 29.89 in 6.2 mi SSW 21.9 mph - N/A   Overcast
12:00 PM 60 °F 54 °F 76% 29.89 in - SSW 17.3 mph - -   Overcast
12:00 PM 60.8 °F 55.4 °F 82% 29.89 in 6.2 mi SSW 17.3 mph - N/A Rain Light Rain Showers
12:30 PM 64.4 °F 55.4 °F 73% 29.89 in 6.2 mi SSW 20.7 mph - N/A   Overcast
1:00 PM 64.4 °F 53.6 °F 68% 29.89 in 6.2 mi SSW 20.7 mph - N/A   Overcast
1:30 PM 62.6 °F 53.6 °F 72% 29.89 in 6.2 mi SSW 20.7 mph - N/A   Overcast
2:00 PM 62.6 °F 51.8 °F 68% 29.89 in 6.2 mi South 19.6 mph - N/A   Overcast
2:30 PM 62.6 °F 51.8 °F 68% 29.89 in 6.2 mi South 21.9 mph - N/A   Overcast
3:00 PM 62 °F 52 °F 62% 29.89 in - South 18.4 mph - -   Overcast
3:00 PM 62.6 °F 51.8 °F 68% 29.89 in 6.2 mi South 18.4 mph - N/A   Overcast
3:30 PM 60.8 °F 50.0 °F 68% 29.89 in 6.2 mi SSW 18.4 mph - N/A   Overcast
4:00 PM 60.8 °F 51.8 °F 72% 29.89 in 6.2 mi SSW 19.6 mph - N/A   Overcast
4:30 PM 62.6 °F 51.8 °F 68% 29.89 in 6.2 mi South 19.6 mph - N/A   Mostly Cloudy
5:00 PM 60.8 °F 51.8 °F 72% 29.86 in 6.2 mi SSW 18.4 mph - N/A   Scattered Clouds
5:30 PM 60.8 °F 50.0 °F 68% 29.89 in 6.2 mi SSW 18.4 mph - N/A   Mostly Cloudy
6:00 PM 61 °F 51 °F 62% 29.90 in - South 18.4 mph - -  
6:00 PM 60.8 °F 51.8 °F 72% 29.89 in 6.2 mi South 18.4 mph - N/A   Overcast
6:30 PM 59.0 °F 51.8 °F 77% 29.89 in 6.2 mi South 18.4 mph - N/A   Mostly Cloudy
7:00 PM 59.0 °F 50.0 °F 72% 29.92 in 6.2 mi South 19.6 mph - N/A   Scattered Clouds
7:30 PM 57.2 °F 48.2 °F 72% 29.92 in 6.2 mi South 17.3 mph - N/A   Unknown
8:00 PM 57.2 °F 50.0 °F 77% 29.92 in 6.2 mi SSW 16.1 mph - N/A   Mostly Cloudy
8:30 PM 55.4 °F 50.0 °F 82% 29.92 in 6.2 mi SSW 12.7 mph - N/A   Scattered Clouds
9:00 PM 56 °F 51 °F 76% 29.95 in - SSW 10.4 mph - -  
9:00 PM 57.2 °F 50.0 °F 77% 29.95 in 6.2 mi SSW 10.4 mph - N/A   Mostly Cloudy
9:30 PM 57.2 °F 50.0 °F 77% 29.95 in 6.2 mi SSW 8.1 mph - N/A   Overcast
10:00 PM 57.2 °F 51.8 °F 82% 29.95 in 6.2 mi South 11.5 mph - N/A   Overcast
10:30 PM 55.4 °F 50.0 °F 82% 29.95 in 6.2 mi South 9.2 mph - N/A   Mostly Cloudy
11:00 PM 55.4 °F 50.0 °F 82% 29.95 in 6.2 mi South 8.1 mph - N/A   Overcast
11:30 PM 57.2 °F 50.0 °F 77% 29.95 in 6.2 mi SE 12.7 mph - N/A   Overcast